,,PA_Meas_PMT16A,,PR_Meas_QMR101_102,,RH_Meas_QMH101,,SR_Meas_QMS101,,TA_Meas_QMH101,,GenWind,,GenWind,
time,status,PA,status,PR,status,RH,status,SR,status,TA,status,DirAvg,status,SpdAvg,
2014-03-30, 06:55:04,VALID,916.569,VALID,0,VALID,96.5201,VALID,52.2164,VALID,19.9968,VALID,157,VALID,1.42461,
2014-03-30, 06:56:04,VALID,916.599,VALID,0,VALID,96.5201,VALID,53.2908,VALID,19.9953,VALID,142,VALID,1.27539,
2014-03-30, 06:57:04,VALID,916.61,VALID,0,VALID,96.5048,VALID,54.2578,VALID,20.0148,VALID,167,VALID,1.26875,
2014-03-30, 06:58:04,VALID,916.633,VALID,0,VALID,96.4972,VALID,55.3322,VALID,20.0358,VALID,148,VALID,1.45898,
2014-03-30, 06:59:04,VALID,916.655,VALID,0,VALID,96.5048,VALID,56.1917,VALID,20.0343,VALID,161,VALID,1.45078,
2014-03-30, 15:30:04,VALID,914.008,VALID,0,VALID,83.1257,VALID,43.4062,VALID,23.1136,VALID,242,VALID,1.74883,
2014-03-30, 15:31:04,VALID,913.955,VALID,0,VALID,83.4002,VALID,47.0592,VALID,22.9948,VALID,253,VALID,1.79727,
2014-03-30, 15:32:04,VALID,913.937,VALID,0,VALID,83.7051,VALID,51.6792,VALID,22.8582,VALID,209,VALID,2.21641,
2014-03-30, 15:33:04,VALID,913.945,VALID,0,VALID,83.6441,VALID,55.5471,VALID,22.7411,VALID,231,VALID,1.87383,
2014-03-30, 15:34:04,VALID,913.934,VALID,0,VALID,83.9567,VALID,57.6959,VALID,22.663,VALID,260,VALID,1.55898,
2014-03-30, 15:35:04,VALID,913.919,VALID,0,VALID,84.1015,VALID,56.8364,VALID,22.585,VALID,235,VALID,1.24375,
2014-03-30, 15:36:04,VALID,913.948,VALID,0,VALID,84.6047,VALID,54.4727,VALID,22.5655,VALID,234,VALID,0.826953,
2014-03-30, 15:37:04,VALID,913.975,VALID,0,VALID,84.6199,VALID,46.7369,VALID,22.585,VALID,203,VALID,0.686719,
2014-03-30, 15:53:04,VALID,913.912,VALID,0,VALID,88.8662,VALID,45.6625,VALID,21.8062,VALID,235,VALID,0.157031,
2014-03-30, 15:54:04,VALID,913.919,VALID,0,VALID,89.598,VALID,48.3485,VALID,21.8241,VALID,250,VALID,0.391797,
2014-03-30, 15:55:04,VALID,913.95,VALID,0,VALID,89.5675,VALID,52.2164,VALID,21.8062,VALID,232,VALID,0.749219,
2014-03-30, 15:56:04,VALID,913.972,VALID,0,VALID,90.1469,VALID,55.4396,VALID,21.8647,VALID,261,VALID,0.226172,
2014-03-30, 15:57:04,VALID,914.014,VALID,0,VALID,90.2384,VALID,57.481,VALID,21.8842,VALID,260,VALID,0.430469,
2014-03-30, 15:58:04,VALID,914.044,VALID,0,VALID,90.1316,VALID,58.448,VALID,21.8842,VALID,261,VALID,0.414063,
2014-03-30, 15:59:04,VALID,914.085,VALID,0,VALID,90.0478,VALID,56.8364,VALID,21.9233,VALID,232,VALID,0.952734,
2014-03-30, 16:00:04,VALID,914.081,VALID,0,VALID,89.415,VALID,52.9685,VALID,21.8647,VALID,187,VALID,1.49531,
2014-03-30, 16:01:04,VALID,914.132,VALID,0,VALID,88.2792,VALID,58.8778,VALID,21.7282,VALID,253,VALID,2.9793,
2014-03-30, 16:02:04,VALID,914.121,VALID,0,VALID,88.7975,VALID,67.1507,VALID,21.5916,VALID,246,VALID,2.17812,
2014-03-30, 16:03:04,VALID,914.11,VALID,0,VALID,89.5675,VALID,72.093,VALID,21.5136,VALID,221,VALID,1.55352,
2014-03-30, 16:04:04,VALID,914.105,VALID,0,VALID,89.8191,VALID,73.8121,VALID,21.4941,VALID,237,VALID,1.22617,
2014-03-30, 16:05:04,VALID,914.098,VALID,0,VALID,89.781,VALID,82.2999,VALID,21.4339,VALID,240,VALID,2.28242,
2014-03-30, 16:06:04,VALID,914.078,VALID,0,VALID,89.4303,VALID,84.019,VALID,21.3559,VALID,228,VALID,0.991797,
2014-03-30, 16:07:04,VALID,914.062,VALID,0,VALID,89.6895,VALID,85.738,VALID,21.338,VALID,223,VALID,1.28633,
2014-03-30, 16:08:04,VALID,914.077,VALID,0,VALID,89.8038,VALID,80.2585,VALID,21.3185,VALID,241,VALID,1.82969,
2014-03-30, 16:09:04,VALID,914.078,VALID,0,VALID,89.8801,VALID,78.9692,VALID,21.2795,VALID,250,VALID,1.36445,
2014-03-30, 16:10:04,VALID,914.063,VALID,0,VALID,89.9258,VALID,71.3409,VALID,21.221,VALID,243,VALID,1.1625,
2014-03-30, 16:11:04,VALID,914.078,VALID,0,VALID,90.0935,VALID,75.8535,VALID,21.2405,VALID,230,VALID,1.26367,
2014-03-30, 16:12:04,VALID,914.076,VALID,0,VALID,89.72,VALID,79.7213,VALID,21.2015,VALID,224,VALID,0.308594,
2014-03-30, 16:13:04,VALID,914.093,VALID,0,VALID,89.8725,VALID,80.9032,VALID,21.2405,VALID,224,VALID,0.399219,
2014-03-30, 16:14:04,VALID,914.1,VALID,0,VALID,90.0021,VALID,80.9032,VALID,21.3006,VALID,225,VALID,0.619141,
2014-03-30, 16:15:04,VALID,914.122,VALID,0,VALID,89.9258,VALID,84.1264,VALID,21.338,VALID,250,VALID,0.864062,
2014-03-30, 16:16:04,VALID,914.12,VALID,0,VALID,89.5523,VALID,87.672,VALID,21.3185,VALID,254,VALID,1.19414,
2014-03-30, 16:17:04,VALID,914.112,VALID,0,VALID,89.8038,VALID,90.1431,VALID,21.299,VALID,254,VALID,0.794141,
2014-03-30, 16:18:04,VALID,914.095,VALID,0,VALID,89.8115,VALID,91.325,VALID,21.3185,VALID,254,VALID,0.5,
2014-03-30, 16:19:04,VALID,914.122,VALID,0,VALID,89.8725,VALID,91.0027,VALID,21.338,VALID,253,VALID,0.889063,
2014-03-30, 16:20:04,VALID,914.104,VALID,0,VALID,89.9411,VALID,91.2175,VALID,21.3965,VALID,249,VALID,0.351953,
2014-03-30, 16:21:04,VALID,914.109,VALID,0,VALID,89.7657,VALID,91.325,VALID,21.416,VALID,249,VALID,0.452734,
2014-03-30, 16:22:04,VALID,914.123,VALID,0,VALID,89.8115,VALID,90.8952,VALID,21.5136,VALID,249,VALID,0.496484,
2014-03-30, 16:23:04,VALID,914.132,VALID,0,VALID,89.072,VALID,89.391,VALID,21.4746,VALID,249,VALID,0.807422,
2014-03-30, 16:24:04,VALID,914.117,VALID,0,VALID,89.0186,VALID,87.0273,VALID,21.4746,VALID,233,VALID,1.01797,
2014-03-30, 16:25:04,VALID,914.114,VALID,0,VALID,89.3998,VALID,84.5562,VALID,21.5347,VALID,230,VALID,0.729297,
2014-03-30, 16:26:04,VALID,914.152,VALID,0,VALID,89.4227,VALID,83.3743,VALID,21.5932,VALID,198,VALID,0.921875,
2014-03-30, 16:27:04,VALID,914.12,VALID,0,VALID,89.1787,VALID,84.2339,VALID,21.6128,VALID,197,VALID,1.36992,
2014-03-30, 16:28:04,VALID,914.103,VALID,0,VALID,89.0567,VALID,85.3083,VALID,21.6501,VALID,228,VALID,0.817578,
2014-03-30, 16:29:04,VALID,914.1,VALID,0,VALID,87.8218,VALID,86.1678,VALID,21.6306,VALID,227,VALID,0.814844,
2014-03-30, 16:30:04,VALID,914.085,VALID,0,VALID,87.4711,VALID,86.705,VALID,21.6323,VALID,216,VALID,0.837891,
2014-03-30, 16:31:04,VALID,914.059,VALID,0,VALID,87.0518,VALID,87.1348,VALID,21.6128,VALID,250,VALID,1.3043,
2014-03-30, 16:32:04,VALID,914.04,VALID,0,VALID,87.2195,VALID,87.5645,VALID,21.5526,VALID,253,VALID,1.66328,
2014-03-30, 16:33:04,VALID,914.035,VALID,0,VALID,87.0213,VALID,87.8869,VALID,21.5152,VALID,257,VALID,1.08086,
2014-03-30, 16:34:04,VALID,914.026,VALID,0,VALID,87.7836,VALID,88.5315,VALID,21.455,VALID,253,VALID,0.886328,
2014-03-30, 16:35:04,VALID,914.049,VALID,0,VALID,87.7074,VALID,89.0687,VALID,21.4372,VALID,229,VALID,2.41641,
2014-03-30, 16:36:04,VALID,914.054,VALID,0,VALID,88.1267,VALID,90.0357,VALID,21.4355,VALID,275,VALID,0.689844,
2014-03-30, 16:37:04,VALID,914.111,VALID,0,VALID,88.1191,VALID,90.5729,VALID,21.4567,VALID,254,VALID,0.997266,
2014-03-30, 16:38:04,VALID,914.126,VALID,0,VALID,87.6159,VALID,92.3994,VALID,21.4372,VALID,243,VALID,1.90352,
2014-03-30, 16:39:04,VALID,914.147,VALID,0,VALID,87.715,VALID,94.011,VALID,21.377,VALID,255,VALID,1.13164,
2014-03-30, 16:40:04,VALID,914.17,VALID,0,VALID,87.9895,VALID,95.5152,VALID,21.3981,VALID,267,VALID,1.19961,
2014-03-30, 16:41:04,VALID,914.173,VALID,0,VALID,87.5778,VALID,96.5896,VALID,21.3575,VALID,248,VALID,2.82734,
2014-03-30, 16:42:04,VALID,914.146,VALID,0,VALID,87.9818,VALID,97.7714,VALID,21.3185,VALID,258,VALID,1.36992,
2014-03-30, 16:43:04,VALID,914.134,VALID,0,VALID,88.2639,VALID,98.7384,VALID,21.3396,VALID,272,VALID,0.672656,
2014-03-30, 16:44:04,VALID,914.177,VALID,0,VALID,87.7531,VALID,99.3831,VALID,21.3591,VALID,254,VALID,1.21016,
2014-03-30, 16:45:04,VALID,914.184,VALID,0,VALID,87.2119,VALID,99.8128,VALID,21.3591,VALID,270,VALID,0.973828,
2014-03-30, 16:46:04,VALID,914.177,VALID,0,VALID,87.6769,VALID,100.028,VALID,21.3575,VALID,268,VALID,0.366797,
2014-03-30, 16:47:04,VALID,914.21,VALID,0,VALID,87.6769,VALID,100.135,VALID,21.4567,VALID,276,VALID,0.477734,
2014-03-30, 16:48:04,VALID,914.192,VALID,0,VALID,87.6998,VALID,99.9203,VALID,21.5347,VALID,253,VALID,0.60625,
2014-03-30, 16:49:04,VALID,914.21,VALID,0,VALID,87.189,VALID,99.5979,VALID,21.5737,VALID,218,VALID,0.959375,
2014-03-30, 16:50:04,VALID,914.198,VALID,0,VALID,86.3962,VALID,99.4905,VALID,21.6111,VALID,229,VALID,1.35391,
2014-03-30, 16:51:04,VALID,914.171,VALID,0,VALID,86.3123,VALID,99.5979,VALID,21.6323,VALID,241,VALID,1.31328,
2014-03-30, 16:52:04,VALID,914.187,VALID,0,VALID,85.6872,VALID,99.7054,VALID,21.6128,VALID,246,VALID,1.46211,
2014-03-30, 16:53:04,VALID,914.178,VALID,0,VALID,85.8702,VALID,99.4905,VALID,21.5526,VALID,250,VALID,0.902734,
2014-03-30, 16:54:04,VALID,914.194,VALID,0,VALID,86.0912,VALID,99.2756,VALID,21.5932,VALID,250,VALID,0.337109,
2014-03-30, 16:55:04,VALID,914.157,VALID,0,VALID,86.7011,VALID,99.5979,VALID,21.6713,VALID,303,VALID,1.02109,
2014-03-30, 16:56:04,VALID,914.148,VALID,0,VALID,87.3872,VALID,99.5979,VALID,21.7688,VALID,19,VALID,1.38867,
2014-03-30, 16:57:04,VALID,914.144,VALID,0,VALID,86.9374,VALID,99.3831,VALID,21.7672,VALID,8,VALID,1.14219,
2014-03-30, 16:58:04,VALID,914.132,VALID,0,VALID,87.0518,VALID,99.2756,VALID,21.7867,VALID,8,VALID,1.13359,
2014-03-30, 16:59:04,VALID,914.103,VALID,0,VALID,86.9527,VALID,98.9533,VALID,21.7867,VALID,9,VALID,0.715234,
2014-03-30, 17:00:04,VALID,914.152,VALID,0,VALID,86.2666,VALID,98.3087,VALID,21.8452,VALID,9,VALID,0.202344,
2014-03-30, 17:01:04,VALID,914.146,VALID,0,VALID,85.611,VALID,96.697,VALID,21.964,VALID,8,VALID,0.921094,
2014-03-30, 17:02:04,VALID,914.22,VALID,0,VALID,85.8092,VALID,94.7631,VALID,22.003,VALID,22,VALID,1.08164,
2014-03-30, 17:03:04,VALID,914.231,VALID,0,VALID,86.0607,VALID,92.8292,VALID,22.042,VALID,23,VALID,1.23086,
2014-03-30, 17:04:04,VALID,914.307,VALID,0,VALID,86.1751,VALID,91.5399,VALID,21.9623,VALID,45,VALID,1.13281,
2014-03-30, 17:05:04,VALID,914.298,VALID,0,VALID,86.8536,VALID,90.7878,VALID,21.9233,VALID,43,VALID,1.01992,
2014-03-30, 17:06:04,VALID,914.372,VALID,0,VALID,86.8231,VALID,90.1431,VALID,21.8842,VALID,44,VALID,1.01641,
2014-03-30, 17:07:04,VALID,914.314,VALID,0,VALID,87.0899,VALID,89.4985,VALID,21.8647,VALID,44,VALID,0.551172,
2014-03-30, 17:08:04,VALID,914.273,VALID,0,VALID,87.2957,VALID,89.1762,VALID,21.9249,VALID,44,VALID,0.424609,
2014-03-30, 17:09:04,VALID,914.246,VALID,0,VALID,86.663,VALID,89.2836,VALID,21.9835,VALID,43,VALID,0.4,
2014-03-30, 17:10:04,VALID,914.228,VALID,0,VALID,86.5182,VALID,89.6059,VALID,22.0403,VALID,43,VALID,0.609766,
2014-03-30, 17:11:04,VALID,914.236,VALID,0,VALID,85.306,VALID,90.4654,VALID,22.0794,VALID,356,VALID,0.744531,
2014-03-30, 17:12:04,VALID,914.217,VALID,0,VALID,85.1917,VALID,90.7878,VALID,22.1005,VALID,356,VALID,0.700391,
2014-03-30, 17:13:04,VALID,914.204,VALID,0,VALID,85.4432,VALID,90.5729,VALID,22.1005,VALID,359,VALID,0.676172,
2014-03-30, 17:14:04,VALID,914.19,VALID,0,VALID,86.2666,VALID,89.6059,VALID,22.1184,VALID,359,VALID,0.396484,
2014-03-30, 17:15:04,VALID,914.251,VALID,0,VALID,85.954,VALID,88.2092,VALID,22.1591,VALID,359,VALID,0.356641,
2014-03-30, 17:16:04,VALID,914.253,VALID,0,VALID,85.4432,VALID,86.2752,VALID,22.2371,VALID,12,VALID,0.8125,
2014-03-30, 17:17:04,VALID,914.281,VALID,0,VALID,84.4522,VALID,83.9115,VALID,22.2745,VALID,42,VALID,0.598047,
2014-03-30, 17:18:04,VALID,914.354,VALID,0,VALID,84.1091,VALID,81.4404,VALID,22.2159,VALID,42,VALID,0.465625,
2014-03-30, 17:19:04,VALID,914.398,VALID,0,VALID,84.3302,VALID,78.9692,VALID,22.1379,VALID,42,VALID,0.526953,
2014-03-30, 17:20:04,VALID,914.436,VALID,0,VALID,84.78,VALID,76.713,VALID,22.1184,VALID,42,VALID,1.1332,
2014-03-30, 17:21:04,VALID,914.476,VALID,0,VALID,85.8625,VALID,74.4567,VALID,22.081,VALID,42,VALID,0.95625,
2014-03-30, 17:22:04,VALID,914.518,VALID,0,VALID,86.6859,VALID,72.4153,VALID,22.0208,VALID,124,VALID,1.22539,
2014-03-30, 17:23:04,VALID,914.531,VALID,0,VALID,87.2652,VALID,70.2665,VALID,22.0013,VALID,131,VALID,1.12656,
2014-03-30, 17:24:04,VALID,914.533,VALID,0,VALID,87.5702,VALID,68.1177,VALID,22.0013,VALID,126,VALID,0.585156,
2014-03-30, 17:25:04,VALID,914.479,VALID,0,VALID,87.4787,VALID,65.754,VALID,22.003,VALID,127,VALID,1.0332,
2014-03-30, 17:26:04,VALID,914.49,VALID,0,VALID,87.5244,VALID,63.1754,VALID,21.9835,VALID,133,VALID,0.691016,
2014-03-30, 17:27:04,VALID,914.458,VALID,0,VALID,87.4863,VALID,60.5968,VALID,21.9623,VALID,136,VALID,0.898047,
2014-03-30, 17:28:04,VALID,914.442,VALID,0,VALID,87.2119,VALID,58.1257,VALID,21.9623,VALID,136,VALID,0.512891,
2014-03-30, 17:29:04,VALID,914.419,VALID,0,VALID,87.3567,VALID,55.762,VALID,21.9623,VALID,136,VALID,0.0949219,
2014-03-30, 17:30:04,VALID,914.366,VALID,0,VALID,87.8599,VALID,53.3983,VALID,22.0225,VALID,136,VALID,0.189063,
2014-03-30, 17:31:04,VALID,914.409,VALID,0,VALID,87.8904,VALID,51.0345,VALID,22.081,VALID,136,VALID,0.418359,
2014-03-30, 17:32:04,VALID,914.406,VALID,0,VALID,86.6249,VALID,48.5634,VALID,22.0794,VALID,135,VALID,0.283594,
2014-03-30, 17:33:04,VALID,914.428,VALID,0,VALID,86.3657,VALID,46.1997,VALID,22.1184,VALID,135,VALID,0.895703,
2014-03-30, 17:34:04,VALID,914.415,VALID,0,VALID,86.137,VALID,44.0509,VALID,22.042,VALID,159,VALID,1.22031,
2014-03-30, 17:35:04,VALID,914.401,VALID,0,VALID,86.4343,VALID,41.9021,VALID,21.9623,VALID,139,VALID,1.43867,
2014-03-30, 23:00:04,INVALID - VALUE NOT AVAILABLE,0,INVALID - VALUE NOT AVAILABLE,0,INVALID - VALUE NOT AVAILABLE,0,INVALID - VALUE NOT AVAILABLE,0,INVALID - VALUE NOT AVAILABLE,0,INVALID,360,INVALID,0,
